星链-11100 [DTC] (STARLINK-11100 [DTC] )

导读 | 豆包AI

STARLINK-11100是美国太空探索技术公司SpaceX星链星座的第11100颗卫星,于2024年5月10日发射升空,属于Starlink Gen2系列,旨在为全球提供高速低延迟互联网覆盖。星链系统通过大规模低轨卫星组网,服务包括偏远地区通信、机载 maritime 互联等场景,该卫星入轨后将进一步扩充星链网络的服务容量与覆盖范围。

基本信息
目录编号:
59713
目录名称:
STARLINK-11100
国际标识:
2024-088F
轨道中心:
EARTH
卫星名称:
星链-11100 [DTC]
卫星全名:
星链-11100 [DTC] (STARLINK-11100 [DTC] )
卫星状态:
在轨 (已飞行721 天)
发射日期:
2024-05-10 UTC
国别 :
美国 (US)
星等 :
--
轨道信息
数据来源 国际轨道数据
星历时间: 2026-05-01T10:31:48+0800
14小时前
查看轨道信息
半长轴: 6737.847km
偏心率: 0.0001043
轨道倾角: 53.159°
近地点辐角 104.712°
升交点赤经 67.959°
平近点角 255.402°
近地点: 359.007km
远地点: 360.413km
周期: 91.736分钟
每日圈数: 15.69716
详细信息
固有亮度:
5
最大亮度:
0.6
卫星平台:
Starlink v2.0 mini
覆盖范围:
全球
运营商:
太空探索技术公司
运营商所在国:
美国
制造商(研发单位):
太空探索技术公司
制造商所在国:
美国
使用方式:
暂无
卫星简介
星链(Starlink)计划是由太空探索技术公司(SpaceX)提出的一个巨型低轨卫星互联网星座项目,计划在2019年至2024年间在太空搭建由约1.2万颗卫星组成的“星链”网络,其中1584颗将部署在地球上空550千米处的近地轨道,并从2020年开始工作。该卫星仍在工作。
2D轨道图
3D轨道图
轨道高度分析图
轨道倾角分析图
轨道综合分析图
查看轨道综合分析图